Regional Weather Roundup
Issued by NWS

Home | Current Version | Previous Version | Graphics & Text | Print | Product List | Glossary Off
Versions: 1 2 3 4 5 6 7 8 9 10 11 12 13 14 15 16 17 18 19 20 21 22 23 24 25 26 27 28 29 30 31 32 33 34 35 36 37 38 39 40 41 42 43 44 45 46 47 48 49 50

000
ASUS43 KTOP 302008
RWRKS

WEATHER ROUNDUP FOR KANSAS
NATIONAL WEATHER SERVICE GOODLAND KS
300 PM CDT TUE JUN 30 2015

NOTE:  "FAIR" INDICATES FEW OR NO CLOUDS BELOW 12,000 FEET WITH NO
SIGNIFICANT WEATHER AND/OR OBSTRUCTIONS TO VISIBILITY.

KSZ001>006-013>018-027>032-041>047-302100-
NORTHWEST KANSAS

CITY           SKY/WX    TMP DP  RH WIND       PRES   REMARKS
GOODLAND       MOSUNNY   93  47  20 VRB6G18   29.99F
HAYS           MOSUNNY  100  50  18 SW10G23   29.90F HX  97
HILL CITY      MOSUNNY  102  49  16 W12G18    29.90F HX  99
RUSSELL        PTSUNNY  101  52  19 W13G26    29.88F HX  98
$$

KSZ061>065-074>080-084>089-302100-
SOUTHWEST KANSAS

CITY           SKY/WX    TMP DP  RH WIND       PRES   REMARKS
DODGE CITY     MOSUNNY   94  50  22 SW13G22   29.98F
ELKHART          N/A     96  52  22 S12         N/A
GARDEN CITY    SUNNY     95  52  23 SW15G26   29.98F
GREAT BEND     PTSUNNY   97  54  23 SW13      29.92F
LIBERAL        SUNNY     93  55  27 S10G18    30.03F
PRATT            N/A    N/A N/A N/A W16G25    29.96F
$$

KSZ066>073-081>083-090>101-302100-
SOUTHEAST KANSAS

CITY           SKY/WX    TMP DP  RH WIND       PRES   REMARKS
CHANUTE        MOSUNNY   93  61  34 W7        29.93F
COFFEYVILLE    PTSUNNY   92  67  43 VRB7      29.93F HX  95
HUTCHINSON     MOSUNNY   99  56  23 SW13G20   29.91F HX  97
MEDICINE LODGE   N/A     98  56  24 W12       29.93F HX  96
NEWTON         SUNNY     99  57  25 W6        29.94F HX  97
PARSONS        PTSUNNY   92  67  43 W5        29.94F HX  95
WICHITA INTL   MOSUNNY   98  58  26 SW9       29.91F HX  97
WICHITA JABRA  SUNNY     97  59  28 SW9G17    29.92F HX  96
WICHITA MCCONL MOSUNNY   96  60  29 S12       29.92F HX  96
WINFIELD       SUNNY     98  59  27 S14G20    29.94F HX  98
$$

KSZ007>012-019>026-033>040-048>060-102>105-302100-
NORTHEAST KANSAS

CITY           SKY/WX    TMP DP  RH WIND       PRES   REMARKS
CONCORDIA      MOSUNNY   92  61  35 SW7       29.88F
EMPORIA        PTSUNNY   95  58  28 W7        29.92F
LAWRENCE       CLOUDY    88  67  49 E3        29.92F
MANHATTAN      SUNNY     98  58  26 S7        29.87F HX  97
MARYSVILLE     PTSUNNY   91  66  43 S5        29.88F
OLATHE IND     PTSUNNY   86  64  47 NW6       29.94F
OLATHE EXE     PTSUNNY   86  63  45 NW6       29.93F
SALINA         MOSUNNY  102  58  23 W13G20    29.89F HX 102
TOPEKA BILLARD PTSUNNY   91  63  39 NE5       29.91F
TOPEKA FORBES  PTSUNNY   93  59  31 SE6       29.92F
$$


USA.gov is the U.S. government's official web portal to all federal, state and local government web resources and services.